Location: Tucson
(32.2217°N, 110.9265°W)
Time: 07:23:17
(UTC-07:00)

Vanguard 1 Rocket - Visible Passes

Search period start: 25 October 2021 00:00
Search period end: 04 November 2021 00:00
Orbit: 650 x 4225 km, 34.3° (Epoch: 24 October)

Date Brightness Start Highest point End Pass type
(mag) Time Alt. Az. Time Alt. Az. Time Alt. Az.
26 Oct 9.4 19:04:56 10° W 19:09:07 18° SW 19:12:25 10° S visible
27 Oct 8.9 17:50:48 10° W 17:58:40 40° SW 18:03:30 10° SE visible
28 Oct 9.8 19:09:18 10° WSW 19:11:30 12° SW 19:13:26 10° SSW visible
29 Oct 9.5 17:53:49 10° W 18:01:09 30° SW 18:05:54 10° SSE visible
31 Oct 12.3 05:31:54 10° SE 05:37:15 11° SE 05:42:38 10° ESE visible
31 Oct 9.8 17:57:04 10° W 18:03:29 22° SW 18:07:55 10° S visible
02 Nov 12.1 05:26:41 10° SSE 05:39:18 17° SE 05:52:24 10° E visible
02 Nov 10.2 18:00:53 10° W 18:05:41 15° SW 18:09:21 10° SSW visible
